Find Starlink 30972

NORAD ID: 58721 Int'l Des: 2024-002 Owner: SPXS Country: US Constellation: starlink operational
LEOCIRCULAR

現在のビュー

3D地球を読み込み中...

About Starlink 30972

Starlink 30972 (NORAD 58721) is a starlink constellation satellite (v2 mini) launched Jan 3, 2024 by SPXS of US. It operates in LEO, CIRCULAR orbit with a mass of 730.00 kg.

Starlink 30972について

説明を読み込み中...

次回通過

Passes for default location (London). Set your location on the main map for personalized predictions.

高度履歴

Loading altitude history...

軌道要素

1 58721U 24002S 26167.16477207 .00000503 00000-0 29139-4 0 9993
2 58721 53.1608 132.4293 0001547 92.2296 267.8882 15.30184980137099
Epoch: Jun 16, 2026 • Age: 6 hours

現在のステータス

高度 475.7 km
速度 7.63 km/s
衛星直下点 4.37°N, 76.05°E
打ち上げ日 Jan 3, 2024
運用期間 2.4 years
タイプ internet

技術仕様

分類 Payload
質量 730.00 kg
乾燥質量 700.00 kg
総質量 730.00 kg
長さ 0.30 m
直径 4.10 m
スパン 29.00 m
形状 Box + pan
製造者 SPXS
バスタイプ Starlink V2M
フェーズステータス In Orbit
所有者/国 SPXS/US

Most Searched